TimeEDT,TemperatureF,Dew PointF,Humidity,Sea Level PressureIn,VisibilityMPH,Wind Direction,Wind SpeedMPH,Gust SpeedMPH,PrecipitationIn,Events,Conditions,WindDirDegrees,DateUTC
12:15 AM,39.9,35.8,85,30.09,10.0,Calm,Calm,-,N/A,,Clear,0,2013-09-09 04:15:00
12:35 AM,39.4,35.6,86,30.09,10.0,Calm,Calm,-,N/A,,Clear,0,2013-09-09 04:35:00
12:55 AM,39.4,35.6,86,30.10,10.0,SW,3.5,-,N/A,,Clear,220,2013-09-09 04:55:00
1:15 AM,36.9,34.0,89,30.11,10.0,SW,6.9,-,N/A,,Clear,220,2013-09-09 05:15:00
1:35 AM,37.4,34.7,90,30.12,10.0,SW,4.6,-,N/A,,Clear,230,2013-09-09 05:35:00
1:55 AM,37.6,34.9,90,30.12,10.0,Calm,Calm,-,N/A,,Clear,0,2013-09-09 05:55:00
2:15 AM,37.4,34.5,89,30.12,10.0,SW,4.6,-,N/A,,Clear,230,2013-09-09 06:15:00
2:35 AM,37.4,34.9,91,30.13,10.0,Calm,Calm,-,N/A,,Clear,0,2013-09-09 06:35:00
2:55 AM,36.7,34.2,91,30.13,10.0,SW,4.6,-,N/A,,Clear,220,2013-09-09 06:55:00
3:15 AM,36.9,34.7,92,30.13,10.0,Calm,Calm,-,N/A,,Clear,0,2013-09-09 07:15:00
3:35 AM,36.3,34.0,91,30.13,10.0,SSW,4.6,-,N/A,,Clear,210,2013-09-09 07:35:00
3:55 AM,36.5,34.0,91,30.14,10.0,Calm,Calm,-,N/A,,Clear,0,2013-09-09 07:55:00
4:15 AM,36.1,34.0,92,30.14,10.0,SSW,3.5,-,N/A,,Clear,210,2013-09-09 08:15:00
4:35 AM,35.8,33.4,91,30.15,10.0,SW,4.6,-,N/A,,Clear,220,2013-09-09 08:35:00
4:55 AM,36.5,34.2,91,30.14,10.0,South,3.5,-,N/A,,Clear,190,2013-09-09 08:55:00
5:15 AM,36.5,34.2,91,30.15,10.0,SW,3.5,-,N/A,,Clear,220,2013-09-09 09:15:00
5:35 AM,36.5,34.2,91,30.15,10.0,Calm,Calm,-,N/A,,Clear,0,2013-09-09 09:35:00
5:55 AM,37.6,35.2,91,30.16,10.0,South,3.5,-,N/A,,Clear,190,2013-09-09 09:55:00
6:15 AM,36.7,34.2,91,30.17,10.0,SSW,3.5,-,N/A,,Clear,200,2013-09-09 10:15:00
6:35 AM,36.7,34.2,91,30.17,10.0,South,3.5,-,N/A,,Clear,190,2013-09-09 10:35:00
6:55 AM,37.6,35.1,91,30.17,10.0,SSW,4.6,-,N/A,,Clear,210,2013-09-09 10:55:00
7:15 AM,38.8,36.3,91,30.18,10.0,SSW,3.5,-,N/A,,Clear,200,2013-09-09 11:15:00
7:35 AM,39.6,36.9,90,30.19,10.0,Calm,Calm,-,N/A,,Clear,0,2013-09-09 11:35:00
7:55 AM,43.3,39.0,85,30.18,10.0,SSE,4.6,-,N/A,,Clear,160,2013-09-09 11:55:00
8:15 AM,44.6,39.2,81,30.18,10.0,South,3.5,-,N/A,,Clear,190,2013-09-09 12:15:00
8:35 AM,46.8,40.6,79,30.18,10.0,Calm,Calm,-,N/A,,Clear,0,2013-09-09 12:35:00
8:55 AM,47.5,40.3,76,30.19,10.0,SSW,4.6,-,N/A,,Clear,200,2013-09-09 12:55:00
9:15 AM,48.7,42.4,79,30.19,10.0,SSW,4.6,-,N/A,,Clear,210,2013-09-09 13:15:00
9:35 AM,50.9,42.1,72,30.18,10.0,SSW,4.6,-,N/A,,Clear,200,2013-09-09 13:35:00
9:55 AM,52.7,40.8,64,30.18,10.0,SSW,8.1,-,N/A,,Clear,210,2013-09-09 13:55:00
10:15 AM,53.2,41.9,65,30.18,10.0,SSW,9.2,-,N/A,,Clear,210,2013-09-09 14:15:00
10:35 AM,54.7,41.4,61,30.17,10.0,South,8.1,-,N/A,,Clear,190,2013-09-09 14:35:00
10:55 AM,56.1,41.5,58,30.17,10.0,South,6.9,-,N/A,,Clear,180,2013-09-09 14:55:00
11:15 AM,57.6,42.3,57,30.16,10.0,SSW,6.9,-,N/A,,Clear,200,2013-09-09 15:15:00
11:35 AM,56.5,39.4,53,30.16,10.0,South,8.1,-,N/A,,Clear,180,2013-09-09 15:35:00
11:55 AM,59.0,41.0,51,30.15,10.0,South,8.1,-,N/A,,Clear,170,2013-09-09 15:55:00
12:15 PM,57.6,37.9,48,30.15,10.0,South,6.9,-,N/A,,Clear,170,2013-09-09 16:15:00
12:35 PM,59.5,39.0,47,30.15,10.0,South,8.1,-,N/A,,Clear,180,2013-09-09 16:35:00
12:55 PM,60.8,39.4,45,30.15,10.0,South,6.9,-,N/A,,Clear,170,2013-09-09 16:55:00
1:15 PM,61.3,40.1,46,30.15,10.0,South,6.9,-,N/A,,Clear,170,2013-09-09 17:15:00
1:35 PM,61.9,38.3,42,30.15,10.0,SSW,5.8,-,N/A,,Clear,200,2013-09-09 17:35:00
1:55 PM,61.7,40.3,45,30.14,10.0,SW,6.9,-,N/A,,Clear,230,2013-09-09 17:55:00
2:15 PM,62.1,40.1,44,30.14,10.0,SSW,4.6,-,N/A,,Clear,210,2013-09-09 18:15:00
2:35 PM,64.0,39.0,40,30.13,10.0,Calm,Calm,-,N/A,,Clear,0,2013-09-09 18:35:00
2:55 PM,63.1,37.4,39,30.12,10.0,SW,6.9,-,N/A,,Clear,220,2013-09-09 18:55:00
3:15 PM,64.4,36.9,36,30.12,10.0,WSW,6.9,-,N/A,,Clear,240,2013-09-09 19:15:00
3:35 PM,65.3,39.9,39,30.11,10.0,South,5.8,-,N/A,,Clear,190,2013-09-09 19:35:00
3:55 PM,64.4,40.8,42,30.10,10.0,SSW,5.8,-,N/A,,Clear,200,2013-09-09 19:55:00
4:15 PM,65.5,40.6,40,30.09,10.0,SSW,8.1,-,N/A,,Clear,210,2013-09-09 20:15:00
4:35 PM,66.0,41.2,40,30.08,10.0,South,8.1,-,N/A,,Clear,190,2013-09-09 20:35:00
4:55 PM,65.3,41.0,41,30.08,10.0,SSW,6.9,-,N/A,,Clear,210,2013-09-09 20:55:00
5:15 PM,63.7,41.5,44,30.07,10.0,SSW,5.8,-,N/A,,Clear,200,2013-09-09 21:15:00
5:35 PM,62.1,43.9,51,30.08,10.0,Calm,Calm,-,N/A,,Clear,0,2013-09-09 21:35:00
5:55 PM,63.0,46.8,55,30.07,10.0,Calm,Calm,-,N/A,,Clear,0,2013-09-09 21:55:00
6:15 PM,61.9,46.2,56,30.07,10.0,Calm,Calm,-,N/A,,Clear,0,2013-09-09 22:15:00
6:35 PM,58.6,47.8,67,30.06,10.0,Calm,Calm,-,N/A,,Clear,0,2013-09-09 22:35:00
6:55 PM,59.9,44.4,57,30.06,10.0,Calm,Calm,-,N/A,,Clear,0,2013-09-09 22:55:00
7:15 PM,57.6,45.5,64,30.08,10.0,Calm,Calm,-,N/A,,Clear,0,2013-09-09 23:15:00
7:35 PM,57.4,45.7,65,30.08,10.0,Calm,Calm,-,N/A,,Clear,0,2013-09-09 23:35:00
7:55 PM,56.1,45.7,68,30.08,10.0,Calm,Calm,-,N/A,,Clear,0,2013-09-09 23:55:00
8:15 PM,53.1,46.6,79,30.09,10.0,SW,3.5,-,N/A,,Clear,230,2013-09-10 00:15:00
8:35 PM,51.8,46.8,83,30.08,10.0,Calm,Calm,-,N/A,,Clear,0,2013-09-10 00:35:00
8:55 PM,52.7,45.0,75,30.08,10.0,South,4.6,-,N/A,,Clear,190,2013-09-10 00:55:00
9:15 PM,54.7,43.2,65,30.08,10.0,South,5.8,-,N/A,,Clear,180,2013-09-10 01:15:00
9:35 PM,54.0,42.6,65,30.07,10.0,South,4.6,-,N/A,,Clear,180,2013-09-10 01:35:00
9:55 PM,53.2,41.9,65,30.07,10.0,SSW,3.5,-,N/A,,Clear,200,2013-09-10 01:55:00
10:15 PM,52.7,40.8,64,30.08,10.0,Calm,Calm,-,N/A,,Clear,0,2013-09-10 02:15:00
10:35 PM,51.6,41.0,67,30.07,10.0,South,4.6,-,N/A,,Clear,180,2013-09-10 02:35:00
10:55 PM,52.2,40.5,64,30.07,10.0,South,6.9,-,N/A,,Clear,190,2013-09-10 02:55:00
11:15 PM,51.8,40.1,64,30.07,10.0,South,5.8,-,N/A,,Clear,190,2013-09-10 03:15:00
11:35 PM,52.5,40.1,63,30.07,10.0,South,6.9,-,N/A,,Clear,190,2013-09-10 03:35:00
11:55 PM,52.2,40.8,65,30.08,10.0,South,3.5,-,N/A,,Clear,190,2013-09-10 03:55:00